星链-1577 (STARLINK-1577 )

导读 | 豆包AI

STARLINK-1577是美国太空探索技术公司 SpaceX "星链"星座的一颗卫星,于2020年8月7日发射,为全球提供低延迟、高速率的卫星互联网服务,属于星链星座早期组网批次卫星,运行在近地轨道,属于SpaceX打造全球卫星互联网基础设施的一部分,服务偏远地区网络覆盖与全球宽带接入。

基本信息
目录编号:
46063
目录名称:
STARLINK-1577
国际标识:
2020-055AN
轨道中心:
EARTH
卫星名称:
星链-1577
卫星全名:
星链-1577 (STARLINK-1577 )
卫星状态:
在轨 (已飞行2066 天)
发射日期:
2020-08-07 UTC
国别 :
美国 (US)
星等 :
--
轨道信息
数据来源 国际轨道数据 AOE轨道数据
星历时间 2026-04-04T04:51:30+0800
6小时前
查看轨道信息
2026-03-31T20:00:00+0800
3天前
查看轨道信息
半长轴 6853.347km 6853.339km
偏心率 0.0001283 0.0001034
轨道倾角 53.162° 53.160°
近地点辐角 98.682° 101.267°
升交点赤经 356.879° 12.528°
平近点角 261.433° 49.215°
近地点 474.33km 474.493km
远地点 476.09km 475.911km
周期 94.105分钟 94.105分钟
每日圈数 15.302018 15.302046
详细信息
固有亮度:
5
最大亮度:
2.5
卫星平台:
Starlink V1.0
覆盖范围:
全球
运营商:
太空探索技术公司
运营商所在国:
美国
制造商(研发单位):
太空探索技术公司
制造商所在国:
美国
使用方式:
暂无
卫星简介
星链(Starlink)计划是由太空探索技术公司(SpaceX)提出的一个巨型低轨卫星互联网星座项目,计划在2019年至2024年间在太空搭建由约1.2万颗卫星组成的“星链”网络,其中1584颗将部署在地球上空550千米处的近地轨道,并从2020年开始工作。该卫星仍在工作。
2D轨道图
3D轨道图
轨道高度分析图
轨道倾角分析图
轨道综合分析图
查看轨道综合分析图